Location: Landeleau
(48.2273°N, 3.7285°W)
Time: 03:48:01
(UTC+00:00)

Cosmos 1470 - Pass Details

Date: 30 March 2020
Orbit: 521 x 543 km, 82.5° (Epoch: 26 May)

Event Time Altitude Azimuth Distance (km) Brightness Sun altitude
Rises 19:27:14 0° 166° (SSE) 2,640 6.0 -8.1°
Reaches altitude 10° 19:29:28 10° 156° (SSE) 1,759 5.0 -8.4°
Maximum altitude 19:32:58 33° 92° (E) 894 3.4 -9.0°
Drops below altitude 10° 19:36:30 10° 27° (NNE) 1,783 5.3 -9.5°
Sets 19:38:48 0° 18° (NNE) 2,682 6.3 -9.9°
